M I D A S
Marine Information and Data Acquisition System
Tripno 1031 of the Zeeleeuw from 2006-02-15 08:21:39 to 2006-02-15 13:48:44
Back to CruiseResearch ActivitiesStationsMapUnderway DataData graphs

EquipmentUnitsComments
TimeDGPSUTC
LatitudeDGPSDM.mWGS84
LongitudeDGPSDM.mWGS84
SpeedMeteo Stationm/sRelative wind speed
DirectionMeteo StationdegRelative wind direction
TemperatureMeteo Stationdeg CelciusAir temperature
PressureMeteo StationPaAtmospheric pressure
HumidityMeteo Station%Relative humidity
Missing or incorrect values are displayed as -999
Metereological data collected by the RV Zeeleeuw from 2006-02-15 08:09:40 to 2006-02-15 13:59:57
                                                                                    Next 1000 lines
Time Latitude Longitude Speed Direction Temperature Pressure Humidity
2006-02-15 08:09:50 51°13.597 2°56.092 -999 104 6.8 99360 -999
2006-02-15 08:09:55 51°13.597 2°56.09 -999 48 6.8 99360 -999
2006-02-15 08:10:00 51°13.598 2°56.088 -999 42 6.8 99360 -999
2006-02-15 08:10:04 51°13.599 2°56.086 -999 76 6.8 99360 -999
2006-02-15 08:10:10 51°13.6 2°56.082 -999 97 6.7 99360 -999
2006-02-15 08:10:15 51°13.601 2°56.079 -999 112 6.7 99360 -999
2006-02-15 08:10:20 51°13.603 2°56.075 -999 90 6.7 99360 -999
2006-02-15 08:10:25 51°13.605 2°56.07 -999 112 6.7 99360 -999
2006-02-15 08:10:30 51°13.606 2°56.066 -999 94 6.8 99360 -999
2006-02-15 08:10:35 51°13.608 2°56.061 -999 107 6.8 99360 -999
2006-02-15 08:10:40 51°13.609 2°56.056 -999 115 6.7 99360 -999
2006-02-15 08:10:44 51°13.61 2°56.052 -999 134 6.7 99360 -999
2006-02-15 08:10:50 51°13.613 2°56.046 -999 42 6.7 99360 -999
2006-02-15 08:10:55 51°13.614 2°56.04 -999 124 6.7 99360 -999
2006-02-15 08:11:00 51°13.616 2°56.034 -999 111 6.7 99360 -999
2006-02-15 08:11:05 51°13.617 2°56.028 -999 91 6.7 99360 -999
2006-02-15 08:11:10 51°13.619 2°56.021 -999 111 6.7 99360 -999
2006-02-15 08:11:15 51°13.621 2°56.014 -999 120 6.7 99360 -999
2006-02-15 08:11:20 51°13.623 2°56.006 -999 110 6.8 99360 -999
2006-02-15 08:11:24 51°13.625 2°55.999 -999 88 6.8 99360 -999
2006-02-15 08:11:30 51°13.628 2°55.989 -999 68 6.7 99350 -999
2006-02-15 08:11:35 51°13.63 2°55.981 -999 103 6.7 99350 -999
2006-02-15 08:11:40 51°13.632 2°55.972 -999 91 6.7 99350 -999
2006-02-15 08:11:45 51°13.634 2°55.964 -999 105 6.7 99350 -999
2006-02-15 08:11:50 51°13.637 2°55.956 -999 111 6.7 99360 -999
2006-02-15 08:11:55 51°13.639 2°55.948 -999 87 6.7 99360 -999
2006-02-15 08:12:00 51°13.641 2°55.941 -999 82 6.7 99350 -999
2006-02-15 08:12:05 51°13.644 2°55.933 -999 102 6.7 99350 -999
2006-02-15 08:12:10 51°13.646 2°55.925 -999 113 6.7 99360 -999
2006-02-15 08:12:15 51°13.648 2°55.918 -999 89 6.7 99360 -999
2006-02-15 08:12:20 51°13.651 2°55.91 -999 74 6.7 99350 -999
2006-02-15 08:12:24 51°13.653 2°55.904 -999 78 6.7 99350 -999
2006-02-15 08:12:30 51°13.656 2°55.894 -999 100 6.7 99360 -999
2006-02-15 08:12:35 51°13.658 2°55.886 -999 151 6.7 99360 -999
2006-02-15 08:12:40 51°13.66 2°55.878 -999 43 6.7 99370 -999
2006-02-15 08:12:45 51°13.663 2°55.87 -999 133 6.7 99370 -999
2006-02-15 08:12:50 51°13.665 2°55.862 -999 131 6.7 99360 -999
2006-02-15 08:12:55 51°13.667 2°55.854 -999 108 6.7 99360 -999
2006-02-15 08:13:00 51°13.669 2°55.846 -999 118 6.7 99350 -999
2006-02-15 08:13:04 51°13.671 2°55.84 -999 114 6.7 99350 -999
2006-02-15 08:13:10 51°13.673 2°55.83 -999 132 6.7 99360 -999
2006-02-15 08:13:15 51°13.675 2°55.823 -999 127 6.7 99360 -999
2006-02-15 08:13:20 51°13.676 2°55.815 -999 120 6.7 99360 -999
2006-02-15 08:13:24 51°13.677 2°55.81 -999 116 6.7 99360 -999
2006-02-15 08:13:30 51°13.679 2°55.801 -999 118 6.7 99350 -999
2006-02-15 08:13:35 51°13.68 2°55.795 -999 125 6.7 99350 -999
2006-02-15 08:13:40 51°13.681 2°55.788 -999 126 6.7 99350 -999
2006-02-15 08:13:44 51°13.682 2°55.784 -999 122 6.7 99350 -999
2006-02-15 08:13:50 51°13.683 2°55.778 -999 132 6.7 99350 -999
2006-02-15 08:13:55 51°13.683 2°55.774 -999 125 6.7 99350 -999
2006-02-15 08:14:00 51°13.684 2°55.772 -999 136 6.7 99350 -999
2006-02-15 08:14:04 51°13.684 2°55.771 -999 141 6.7 99350 -999
2006-02-15 08:14:10 51°13.685 2°55.77 -999 121 6.7 99350 -999
2006-02-15 08:14:15 51°13.686 2°55.77 -999 121 6.7 99350 -999
2006-02-15 08:14:20 51°13.687 2°55.771 -999 130 6.7 99350 -999
2006-02-15 08:14:25 51°13.689 2°55.772 -999 128 6.7 99350 -999
2006-02-15 08:14:30 51°13.691 2°55.774 -999 137 6.7 99350 -999
2006-02-15 08:14:34 51°13.693 2°55.775 -999 156 6.7 99350 -999
2006-02-15 08:14:40 51°13.696 2°55.777 -999 178 6.7 99350 -999
2006-02-15 08:14:45 51°13.699 2°55.779 -999 206 6.7 99350 -999
2006-02-15 08:14:50 51°13.703 2°55.78 -999 167 6.7 99350 -999
2006-02-15 08:14:55 51°13.706 2°55.782 -999 187 6.7 99350 -999
2006-02-15 08:15:00 51°13.71 2°55.782 -999 178 6.7 99340 -999
2006-02-15 08:15:05 51°13.713 2°55.782 -999 187 6.7 99340 -999
2006-02-15 08:15:10 51°13.716 2°55.782 -999 205 6.7 99350 -999
2006-02-15 08:15:15 51°13.717 2°55.781 -999 216 6.7 99350 -999
2006-02-15 08:15:20 51°13.718 2°55.78 -999 202 6.7 99350 -999
2006-02-15 08:15:25 51°13.718 2°55.779 -999 207 6.7 99350 -999
2006-02-15 08:15:30 51°13.717 2°55.778 -999 177 6.8 99360 -999
2006-02-15 08:15:35 51°13.715 2°55.776 -999 171 6.8 99360 -999
2006-02-15 08:15:40 51°13.713 2°55.776 -999 217 6.8 99360 -999
2006-02-15 08:15:45 51°13.71 2°55.775 -999 204 6.8 99360 -999
2006-02-15 08:15:50 51°13.708 2°55.774 -999 219 6.8 99350 -999
2006-02-15 08:15:55 51°13.707 2°55.773 -999 213 6.8 99350 -999
2006-02-15 08:16:00 51°13.706 2°55.772 -999 178 6.8 99350 -999
2006-02-15 08:16:05 51°13.705 2°55.771 -999 214 6.8 99350 -999
2006-02-15 08:16:10 51°13.705 2°55.77 -999 151 6.8 99350 -999
2006-02-15 08:16:15 51°13.706 2°55.769 -999 229 6.8 99350 -999
2006-02-15 08:16:20 51°13.707 2°55.767 -999 224 6.8 99350 -999
2006-02-15 08:16:25 51°13.709 2°55.765 -999 227 6.8 99350 -999
2006-02-15 08:16:30 51°13.711 2°55.763 -999 228 6.8 99350 -999
2006-02-15 08:16:35 51°13.714 2°55.759 -999 233 6.8 99350 -999
2006-02-15 08:16:40 51°13.718 2°55.755 -999 251 6.8 99350 -999
2006-02-15 08:16:45 51°13.722 2°55.75 -999 254 6.8 99350 -999
2006-02-15 08:16:50 51°13.727 2°55.743 -999 251 6.8 99350 -999
2006-02-15 08:16:54 51°13.731 2°55.737 -999 222 6.8 99350 -999
2006-02-15 08:17:00 51°13.739 2°55.728 -999 273 6.8 99350 -999
2006-02-15 08:17:05 51°13.746 2°55.72 -999 247 6.8 99350 -999
2006-02-15 08:17:10 51°13.753 2°55.712 -999 242 6.8 99340 -999
2006-02-15 08:17:15 51°13.761 2°55.703 -999 271 6.8 99340 -999
2006-02-15 08:17:20 51°13.77 2°55.694 -999 286 6.8 99340 -999
2006-02-15 08:17:24 51°13.777 2°55.687 -999 248 6.8 99340 -999
2006-02-15 08:17:30 51°13.789 2°55.676 -999 212 6.8 99330 -999
2006-02-15 08:17:35 51°13.799 2°55.666 -999 84 6.8 99330 -999
2006-02-15 08:17:40 51°13.809 2°55.657 -999 254 6.8 99340 -999
2006-02-15 08:17:45 51°13.819 2°55.647 -999 88 6.8 99340 -999
2006-02-15 08:17:50 51°13.83 2°55.637 -999 238 6.8 99340 -999
2006-02-15 08:17:55 51°13.841 2°55.628 -999 227 6.8 99340 -999
2006-02-15 08:18:00 51°13.853 2°55.619 -999 232 6.8 99350 -999
2006-02-15 08:18:05 51°13.864 2°55.61 -999 202 6.8 99350 -999
2006-02-15 08:18:10 51°13.876 2°55.602 -999 230 6.8 99340 -999
2006-02-15 08:18:15 51°13.889 2°55.593 -999 303 6.8 99340 -999
2006-02-15 08:18:20 51°13.901 2°55.584 -999 279 6.8 99320 -999
2006-02-15 08:18:25 51°13.912 2°55.575 -999 290 6.8 99320 -999
2006-02-15 08:18:30 51°13.924 2°55.566 -999 285 6.8 99340 -999
2006-02-15 08:18:35 51°13.937 2°55.557 -999 209 6.8 99340 -999
2006-02-15 08:18:40 51°13.948 2°55.549 -999 251 6.8 99350 -999
2006-02-15 08:18:45 51°13.96 2°55.541 -999 204 6.8 99350 -999
2006-02-15 08:18:50 51°13.971 2°55.533 -999 237 6.8 99350 -999
2006-02-15 08:18:55 51°13.983 2°55.524 -999 232 6.8 99350 -999
2006-02-15 08:19:00 51°13.994 2°55.516 -999 254 6.8 99350 -999
2006-02-15 08:19:05 51°14.005 2°55.508 -999 178 6.8 99350 -999
2006-02-15 08:19:10 51°14.016 2°55.5 -999 258 6.8 99350 -999
2006-02-15 08:19:15 51°14.027 2°55.492 -999 250 6.8 99350 -999
2006-02-15 08:19:19 51°14.036 2°55.485 -999 225 6.8 99340 -999
2006-02-15 08:19:24 51°14.047 2°55.478 -999 150 6.8 99340 -999
2006-02-15 08:19:30 51°14.06 2°55.468 -999 286 6.8 99340 -999
2006-02-15 08:19:35 51°14.071 2°55.459 -999 235 6.8 99340 -999
2006-02-15 08:19:40 51°14.083 2°55.451 -999 221 6.8 99340 -999
2006-02-15 08:19:44 51°14.092 2°55.443 -999 284 6.8 99340 -999
2006-02-15 08:19:50 51°14.106 2°55.433 -999 257 6.8 99340 -999
2006-02-15 08:19:55 51°14.118 2°55.424 -999 257 6.8 99340 -999
2006-02-15 08:20:00 51°14.13 2°55.415 -999 261 6.8 99340 -999
2006-02-15 08:20:05 51°14.142 2°55.406 -999 267 6.8 99340 -999
2006-02-15 08:20:10 51°14.154 2°55.396 -999 303 6.8 99330 -999
2006-02-15 08:20:15 51°14.166 2°55.386 -999 273 6.8 99330 -999
2006-02-15 08:20:20 51°14.178 2°55.375 -999 300 6.8 99360 -999
2006-02-15 08:20:24 51°14.187 2°55.366 -999 252 6.8 99360 -999
2006-02-15 08:20:30 51°14.2 2°55.351 -999 238 6.8 99350 -999
2006-02-15 08:20:35 51°14.211 2°55.338 -999 262 6.8 99350 -999
2006-02-15 08:20:40 51°14.222 2°55.325 -999 284 6.8 99340 -999
2006-02-15 08:20:45 51°14.232 2°55.311 -999 291 6.8 99340 -999
2006-02-15 08:20:50 51°14.242 2°55.297 -999 299 6.8 99340 -999
2006-02-15 08:20:55 51°14.251 2°55.281 -999 342 6.8 99340 -999
2006-02-15 08:21:00 51°14.261 2°55.266 -999 323 6.8 99340 -999
2006-02-15 08:21:04 51°14.268 2°55.254 -999 303 6.8 99340 -999
2006-02-15 08:21:10 51°14.279 2°55.235 -999 302 6.8 99350 -999
2006-02-15 08:21:15 51°14.288 2°55.219 -999 298 6.8 99350 -999
2006-02-15 08:21:20 51°14.297 2°55.202 -999 301 6.8 99350 -999
2006-02-15 08:21:25 51°14.305 2°55.185 -999 308 6.8 99350 -999
2006-02-15 08:21:30 51°14.314 2°55.168 -999 305 6.8 99340 -999
2006-02-15 08:21:35 51°14.323 2°55.151 -999 288 6.8 99340 -999
2006-02-15 08:21:40 51°14.332 2°55.134 -999 289 6.8 99340 -999
2006-02-15 08:21:45 51°14.341 2°55.118 -999 304 6.8 99340 -999
2006-02-15 08:21:50 51°14.351 2°55.102 -999 306 6.8 99350 -999
2006-02-15 08:21:55 51°14.361 2°55.085 -999 272 6.8 99350 -999
2006-02-15 08:22:00 51°14.372 2°55.069 -999 39 6.8 99340 -999
2006-02-15 08:22:04 51°14.38 2°55.055 -999 288 6.8 99340 -999
2006-02-15 08:22:10 51°14.393 2°55.034 -999 296 6.8 99340 -999
2006-02-15 08:22:15 51°14.404 2°55.016 -999 290 6.8 99340 -999
2006-02-15 08:22:20 51°14.415 2°54.996 -999 283 6.8 99340 -999
2006-02-15 08:22:24 51°14.423 2°54.98 -999 275 6.8 99340 -999
2006-02-15 08:22:30 51°14.434 2°54.955 -999 280 6.8 99330 -999
2006-02-15 08:22:35 51°14.443 2°54.933 -999 289 6.8 99330 -999
2006-02-15 08:22:40 51°14.451 2°54.91 -999 303 6.8 99300 -999
2006-02-15 08:22:44 51°14.456 2°54.891 -999 307 6.8 99300 -999
2006-02-15 08:22:48 51°14.461 2°54.871 -999 309 6.8 99300 -999
2006-02-15 08:22:54 51°14.467 2°54.84 -999 294 6.8 99300 -999
2006-02-15 08:22:59 51°14.472 2°54.815 -999 309 6.8 99310 -999
2006-02-15 08:23:04 51°14.476 2°54.788 -999 43 6.8 99310 -999
2006-02-15 08:23:10 51°14.481 2°54.756 -999 314 6.7 99310 -999
2006-02-15 08:23:14 51°14.483 2°54.735 -999 321 6.7 99310 -999
2006-02-15 08:23:19 51°14.485 2°54.706 -999 320 6.8 99290 -999
2006-02-15 08:23:24 51°14.487 2°54.678 -999 316 6.8 99290 -999
2006-02-15 08:23:28 51°14.488 2°54.656 -999 313 6.7 99300 -999
2006-02-15 08:23:34 51°14.488 2°54.623 -999 323 6.7 99300 -999
2006-02-15 08:23:40 51°14.487 2°54.589 -999 324 6.7 99290 -999
2006-02-15 08:23:44 51°14.487 2°54.567 -999 318 6.7 99290 -999
2006-02-15 08:23:49 51°14.486 2°54.538 -999 321 6.7 99290 -999
2006-02-15 08:23:54 51°14.484 2°54.51 -999 324 6.7 99290 -999
2006-02-15 08:23:59 51°14.481 2°54.483 -999 323 6.7 99280 -999
2006-02-15 08:24:04 51°14.477 2°54.455 -999 332 6.7 99280 -999
2006-02-15 08:24:09 51°14.472 2°54.428 -999 326 6.7 99280 -999
2006-02-15 08:24:14 51°14.466 2°54.402 -999 326 6.7 99280 -999
2006-02-15 08:24:19 51°14.46 2°54.376 -999 330 6.7 99260 -999
2006-02-15 08:24:24 51°14.453 2°54.35 -999 335 6.7 99260 -999
2006-02-15 08:24:30 51°14.444 2°54.32 -999 336 6.8 99270 -999
2006-02-15 08:24:35 51°14.436 2°54.295 -999 341 6.8 99270 -999
2006-02-15 08:24:39 51°14.43 2°54.276 -999 340 6.8 99340 -999
2006-02-15 08:24:44 51°14.421 2°54.251 -999 339 6.8 99340 -999
2006-02-15 08:24:50 51°14.411 2°54.222 -999 339 6.8 99260 -999
2006-02-15 08:24:55 51°14.403 2°54.198 -999 340 6.8 99260 -999
2006-02-15 08:25:00 51°14.394 2°54.174 -999 337 6.8 99270 -999
2006-02-15 08:25:04 51°14.386 2°54.155 -999 333 6.8 99270 -999
2006-02-15 08:25:08 51°14.379 2°54.136 -999 335 6.8 99280 -999
2006-02-15 08:25:15 51°14.365 2°54.102 -999 342 6.8 99280 -999
2006-02-15 08:25:19 51°14.358 2°54.083 -999 337 6.8 99260 -999
2006-02-15 08:25:24 51°14.349 2°54.059 -999 335 6.8 99260 -999
2006-02-15 08:25:29 51°14.339 2°54.035 -999 336 6.8 99270 -999
2006-02-15 08:25:34 51°14.33 2°54.011 -999 338 6.8 99270 -999
2006-02-15 08:25:40 51°14.319 2°53.981 -999 336 6.8 99270 -999
2006-02-15 08:25:44 51°14.312 2°53.961 -999 335 6.8 99270 -999
2006-02-15 08:25:48 51°14.305 2°53.941 -999 334 6.7 99280 -999
2006-02-15 08:25:54 51°14.295 2°53.91 -999 332 6.7 99280 -999
2006-02-15 08:26:00 51°14.286 2°53.879 -999 330 6.8 99280 -999
2006-02-15 08:26:05 51°14.278 2°53.853 -999 331 6.8 99280 -999
2006-02-15 08:26:08 51°14.273 2°53.838 -999 337 6.8 99270 -999
2006-02-15 08:26:14 51°14.264 2°53.807 -999 336 6.8 99270 -999
2006-02-15 08:26:19 51°14.256 2°53.781 -999 334 6.8 99260 -999
2006-02-15 08:26:25 51°14.246 2°53.75 -999 337 6.8 99260 -999
2006-02-15 08:26:28 51°14.24 2°53.735 -999 336 6.8 99260 -999
2006-02-15 08:26:35 51°14.228 2°53.7 -999 335 6.8 99260 -999
2006-02-15 08:26:39 51°14.22 2°53.68 -999 337 6.8 99280 -999
2006-02-15 08:26:44 51°14.211 2°53.656 -999 340 6.8 99280 -999
2006-02-15 08:26:49 51°14.201 2°53.631 -999 342 6.8 99260 -999
2006-02-15 08:26:54 51°14.19 2°53.607 -999 344 6.8 99260 -999
2006-02-15 08:26:59 51°14.18 2°53.583 -999 343 6.8 99260 -999
2006-02-15 08:27:04 51°14.171 2°53.559 -999 337 6.8 99260 -999
2006-02-15 08:27:09 51°14.161 2°53.534 -999 337 6.8 99260 -999
2006-02-15 08:27:14 51°14.151 2°53.51 -999 339 6.8 99260 -999
2006-02-15 08:27:19 51°14.142 2°53.484 -999 343 6.8 99290 -999
2006-02-15 08:27:24 51°14.134 2°53.458 -999 334 6.8 99290 -999
2006-02-15 08:27:28 51°14.127 2°53.438 -999 328 6.7 99270 -999
2006-02-15 08:27:34 51°14.118 2°53.406 -999 332 6.7 99270 -999
2006-02-15 08:27:40 51°14.109 2°53.374 -999 328 6.7 99280 -999
2006-02-15 08:27:44 51°14.102 2°53.353 -999 336 6.7 99280 -999
2006-02-15 08:27:49 51°14.094 2°53.327 -999 336 6.7 99270 -999
2006-02-15 08:27:54 51°14.086 2°53.301 -999 341 6.7 99270 -999
2006-02-15 08:28:00 51°14.075 2°53.27 -999 336 6.7 99250 -999
2006-02-15 08:28:04 51°14.068 2°53.25 -999 337 6.7 99250 -999
2006-02-15 08:28:08 51°14.06 2°53.23 -999 335 6.7 99250 -999
2006-02-15 08:28:15 51°14.047 2°53.195 -999 335 6.7 99250 -999
2006-02-15 08:28:19 51°14.039 2°53.175 -999 340 6.7 99270 -999
2006-02-15 08:28:24 51°14.029 2°53.151 -999 339 6.7 99270 -999
2006-02-15 08:28:29 51°14.02 2°53.125 -999 341 6.7 99270 -999
2006-02-15 08:28:34 51°14.01 2°53.1 -999 339 6.7 99270 -999
2006-02-15 08:28:39 51°14.001 2°53.075 -999 340 6.8 99260 -999
2006-02-15 08:28:44 51°13.991 2°53.05 -999 349 6.8 99260 -999
2006-02-15 08:28:49 51°13.982 2°53.025 -999 346 6.8 99270 -999
2006-02-15 08:28:54 51°13.972 2°53 -999 340 6.8 99270 -999
2006-02-15 08:28:59 51°13.963 2°52.975 -999 337 6.8 99270 -999
2006-02-15 08:29:04 51°13.954 2°52.95 -999 337 6.8 99270 -999
2006-02-15 08:29:10 51°13.943 2°52.919 -999 341 6.8 99270 -999
2006-02-15 08:29:14 51°13.936 2°52.899 -999 333 6.8 99270 -999
2006-02-15 08:29:19 51°13.928 2°52.873 -999 344 6.8 99270 -999
2006-02-15 08:29:24 51°13.919 2°52.847 -999 337 6.8 99270 -999
2006-02-15 08:29:28 51°13.913 2°52.826 -999 338 6.8 99280 -999
2006-02-15 08:29:35 51°13.901 2°52.789 -999 334 6.8 99280 -999
2006-02-15 08:29:39 51°13.895 2°52.768 -999 332 6.8 99270 -999
2006-02-15 08:29:44 51°13.886 2°52.742 -999 339 6.8 99270 -999
2006-02-15 08:29:49 51°13.877 2°52.716 -999 338 6.8 99260 -999
2006-02-15 08:29:54 51°13.868 2°52.691 -999 345 6.8 99260 -999
2006-02-15 08:29:59 51°13.858 2°52.666 -999 340 6.8 99260 -999
2006-02-15 08:30:04 51°13.849 2°52.641 -999 340 6.8 99260 -999
2006-02-15 08:30:10 51°13.837 2°52.612 -999 343 6.8 99260 -999
2006-02-15 08:30:14 51°13.829 2°52.592 -999 341 6.8 99260 -999
2006-02-15 08:30:20 51°13.818 2°52.562 -999 339 6.8 99260 -999
2006-02-15 08:30:24 51°13.81 2°52.542 -999 341 6.8 99260 -999
2006-02-15 08:30:29 51°13.801 2°52.517 -999 343 6.8 99270 -999
2006-02-15 08:30:34 51°13.791 2°52.492 -999 339 6.8 99270 -999
2006-02-15 08:30:40 51°13.781 2°52.461 -999 341 6.8 99260 -999
2006-02-15 08:30:44 51°13.773 2°52.441 -999 343 6.8 99260 -999
2006-02-15 08:30:49 51°13.764 2°52.416 -999 335 6.8 99260 -999
2006-02-15 08:30:54 51°13.755 2°52.39 -999 343 6.8 99260 -999
2006-02-15 08:30:59 51°13.745 2°52.365 -999 348 6.8 99270 -999
2006-02-15 08:31:04 51°13.735 2°52.341 -999 348 6.8 99270 -999
2006-02-15 08:31:08 51°13.727 2°52.322 -999 347 6.8 99270 -999
2006-02-15 08:31:14 51°13.715 2°52.293 -999 346 6.8 99270 -999
2006-02-15 08:31:19 51°13.704 2°52.269 -999 345 6.8 99260 -999
2006-02-15 08:31:24 51°13.693 2°52.245 -999 342 6.8 99260 -999
2006-02-15 08:31:28 51°13.685 2°52.226 -999 347 6.8 99280 -999
2006-02-15 08:31:34 51°13.673 2°52.197 -999 342 6.8 99280 -999
2006-02-15 08:31:39 51°13.663 2°52.172 -999 337 6.8 99270 -999
2006-02-15 08:31:44 51°13.653 2°52.147 -999 340 6.8 99270 -999
2006-02-15 08:31:48 51°13.645 2°52.128 -999 342 6.8 99270 -999
2006-02-15 08:31:54 51°13.634 2°52.098 -999 348 6.8 99270 -999
2006-02-15 08:31:59 51°13.625 2°52.072 -999 345 6.8 99270 -999
2006-02-15 08:32:04 51°13.615 2°52.047 -999 345 6.8 99270 -999
2006-02-15 08:32:09 51°13.606 2°52.023 -999 344 6.8 99260 -999
2006-02-15 08:32:15 51°13.593 2°51.993 -999 346 6.8 99260 -999
2006-02-15 08:32:19 51°13.585 2°51.975 -999 347 6.8 99270 -999
2006-02-15 08:32:24 51°13.574 2°51.951 -999 346 6.8 99270 -999
2006-02-15 08:32:29 51°13.563 2°51.927 -999 349 6.8 99280 -999
2006-02-15 08:32:34 51°13.553 2°51.903 -999 343 6.8 99280 -999
2006-02-15 08:32:40 51°13.541 2°51.874 -999 345 6.7 99280 -999
2006-02-15 08:32:44 51°13.533 2°51.854 -999 344 6.7 99280 -999
2006-02-15 08:32:48 51°13.525 2°51.834 -999 342 6.7 99290 -999
2006-02-15 08:32:55 51°13.512 2°51.799 -999 338 6.7 99290 -999
2006-02-15 08:32:59 51°13.505 2°51.779 -999 336 6.7 99270 -999
2006-02-15 08:33:04 51°13.495 2°51.754 -999 340 6.7 99270 -999
2006-02-15 08:33:09 51°13.486 2°51.729 -999 342 6.7 99270 -999
2006-02-15 08:33:14 51°13.476 2°51.704 -999 342 6.7 99270 -999
2006-02-15 08:33:19 51°13.466 2°51.68 -999 346 6.7 99260 -999
2006-02-15 08:33:24 51°13.456 2°51.655 -999 345 6.7 99260 -999
2006-02-15 08:33:29 51°13.446 2°51.631 -999 345 6.7 99260 -999
2006-02-15 08:33:34 51°13.436 2°51.607 -999 341 6.7 99260 -999
2006-02-15 08:33:39 51°13.425 2°51.583 -999 346 6.8 99250 -999
2006-02-15 08:33:44 51°13.414 2°51.559 -999 345 6.8 99250 -999
2006-02-15 08:33:49 51°13.404 2°51.534 -999 350 6.8 99260 -999
2006-02-15 08:33:54 51°13.394 2°51.51 -999 346 6.8 99260 -999
2006-02-15 08:33:59 51°13.384 2°51.486 -999 339 6.8 99260 -999
2006-02-15 08:34:04 51°13.374 2°51.461 -999 335 6.8 99260 -999
2006-02-15 08:34:09 51°13.364 2°51.437 -999 338 6.7 99270 -999
2006-02-15 08:34:14 51°13.355 2°51.412 -999 343 6.7 99270 -999
2006-02-15 08:34:19 51°13.345 2°51.387 -999 343 6.8 99260 -999
2006-02-15 08:34:24 51°13.336 2°51.362 -999 344 6.8 99260 -999
2006-02-15 08:34:28 51°13.329 2°51.342 -999 344 6.8 99240 -999
2006-02-15 08:34:34 51°13.317 2°51.312 -999 344 6.8 99240 -999
2006-02-15 08:34:40 51°13.305 2°51.283 -999 344 6.8 99240 -999
2006-02-15 08:34:44 51°13.297 2°51.263 -999 342 6.8 99240 -999
2006-02-15 08:34:48 51°13.289 2°51.244 -999 343 6.8 99260 -999
2006-02-15 08:34:54 51°13.276 2°51.216 -999 347 6.8 99260 -999
2006-02-15 08:34:59 51°13.266 2°51.191 -999 346 6.8 99260 -999
2006-02-15 08:35:04 51°13.257 2°51.166 -999 344 6.8 99260 -999
2006-02-15 08:35:09 51°13.247 2°51.141 -999 340 6.8 99260 -999
2006-02-15 08:35:14 51°13.237 2°51.117 -999 344 6.8 99260 -999
2006-02-15 08:35:19 51°13.228 2°51.092 -999 347 6.8 99270 -999
2006-02-15 08:35:24 51°13.218 2°51.068 -999 347 6.8 99270 -999
2006-02-15 08:35:29 51°13.208 2°51.043 -999 343 6.8 99270 -999
2006-02-15 08:35:34 51°13.198 2°51.018 -999 345 6.8 99270 -999
2006-02-15 08:35:39 51°13.188 2°50.994 -999 343 6.7 99270 -999
2006-02-15 08:35:44 51°13.178 2°50.97 -999 347 6.7 99270 -999
2006-02-15 08:35:48 51°13.17 2°50.95 -999 348 6.7 99270 -999
2006-02-15 08:35:54 51°13.158 2°50.921 -999 344 6.7 99270 -999
2006-02-15 08:35:59 51°13.147 2°50.897 -999 347 6.7 99280 -999
2006-02-15 08:36:04 51°13.137 2°50.872 -999 347 6.7 99280 -999
2006-02-15 08:36:09 51°13.127 2°50.847 -999 346 6.7 99270 -999
2006-02-15 08:36:14 51°13.118 2°50.822 -999 343 6.7 99270 -999
2006-02-15 08:36:19 51°13.108 2°50.797 -999 346 6.7 99270 -999
2006-02-15 08:36:24 51°13.099 2°50.772 -999 345 6.7 99270 -999
2006-02-15 08:36:29 51°13.089 2°50.747 -999 348 6.7 99280 -999
2006-02-15 08:36:34 51°13.08 2°50.722 -999 349 6.7 99280 -999
2006-02-15 08:36:40 51°13.068 2°50.692 -999 343 6.7 99270 -999
2006-02-15 08:36:44 51°13.061 2°50.672 -999 346 6.7 99270 -999
2006-02-15 08:36:49 51°13.051 2°50.647 -999 347 6.7 99270 -999
2006-02-15 08:36:54 51°13.042 2°50.622 -999 350 6.7 99270 -999
2006-02-15 08:36:59 51°13.032 2°50.598 -999 341 6.7 99280 -999
2006-02-15 08:37:04 51°13.022 2°50.573 -999 345 6.7 99280 -999
2006-02-15 08:37:09 51°13.012 2°50.549 -999 348 6.7 99270 -999
2006-02-15 08:37:14 51°13.002 2°50.524 -999 348 6.7 99270 -999
2006-02-15 08:37:20 51°12.989 2°50.496 -999 350 6.7 99270 -999
2006-02-15 08:37:24 51°12.981 2°50.477 -999 344 6.7 99270 -999
2006-02-15 08:37:29 51°12.971 2°50.452 -999 348 6.7 99270 -999
2006-02-15 08:37:34 51°12.961 2°50.428 -999 351 6.7 99270 -999
2006-02-15 08:37:39 51°12.951 2°50.403 -999 354 6.8 99270 -999
2006-02-15 08:37:44 51°12.941 2°50.379 -999 354 6.8 99270 -999
2006-02-15 08:37:48 51°12.933 2°50.36 -999 354 6.8 99270 -999
2006-02-15 08:37:54 51°12.922 2°50.33 -999 350 6.8 99270 -999
2006-02-15 08:37:59 51°12.912 2°50.305 -999 349 6.8 99270 -999
2006-02-15 08:38:04 51°12.903 2°50.281 -999 345 6.8 99270 -999
2006-02-15 08:38:09 51°12.893 2°50.256 -999 341 6.8 99260 -999
2006-02-15 08:38:14 51°12.884 2°50.231 -999 346 6.8 99260 -999
2006-02-15 08:38:19 51°12.874 2°50.207 -999 347 6.9 99270 -999
2006-02-15 08:38:24 51°12.864 2°50.182 -999 348 6.9 99270 -999
2006-02-15 08:38:30 51°12.852 2°50.153 -999 347 6.9 99270 -999
2006-02-15 08:38:35 51°12.842 2°50.129 -999 346 6.9 99270 -999
2006-02-15 08:38:39 51°12.834 2°50.11 -999 349 6.9 99250 -999
2006-02-15 08:38:44 51°12.823 2°50.087 -999 348 6.9 99250 -999
2006-02-15 08:38:49 51°12.813 2°50.063 -999 349 6.8 99270 -999
2006-02-15 08:38:55 51°12.801 2°50.034 -999 347 6.8 99270 -999
2006-02-15 08:38:59 51°12.793 2°50.014 -999 347 6.9 99270 -999
2006-02-15 08:39:04 51°12.783 2°49.989 -999 344 6.9 99270 -999
2006-02-15 08:39:09 51°12.774 2°49.964 -999 351 6.8 99270 -999
2006-02-15 08:39:15 51°12.762 2°49.934 -999 348 6.8 99270 -999
2006-02-15 08:39:19 51°12.754 2°49.914 -999 346 6.9 99270 -999
2006-02-15 08:39:24 51°12.744 2°49.889 -999 345 6.9 99270 -999
2006-02-15 08:39:29 51°12.735 2°49.864 -999 345 6.8 99270 -999
2006-02-15 08:39:34 51°12.725 2°49.839 -999 343 6.8 99270 -999
2006-02-15 08:39:39 51°12.716 2°49.814 -999 346 6.8 99270 -999
2006-02-15 08:39:44 51°12.706 2°49.79 -999 345 6.8 99270 -999
2006-02-15 08:39:49 51°12.696 2°49.765 -999 345 6.8 99270 -999
2006-02-15 08:39:54 51°12.686 2°49.74 -999 344 6.8 99270 -999
2006-02-15 08:39:59 51°12.676 2°49.715 -999 349 6.8 99270 -999
2006-02-15 08:40:05 51°12.665 2°49.685 -999 346 6.8 99270 -999
2006-02-15 08:40:08 51°12.659 2°49.67 -999 344 6.8 99270 -999
2006-02-15 08:40:15 51°12.647 2°49.635 -999 344 6.8 99270 -999
2006-02-15 08:40:19 51°12.64 2°49.614 -999 343 6.8 99270 -999
2006-02-15 08:40:24 51°12.631 2°49.588 -999 346 6.8 99270 -999
2006-02-15 08:40:29 51°12.623 2°49.562 -999 341 6.8 99270 -999
2006-02-15 08:40:34 51°12.614 2°49.536 -999 345 6.8 99270 -999
2006-02-15 08:40:39 51°12.606 2°49.51 -999 350 6.8 99270 -999
2006-02-15 08:40:44 51°12.597 2°49.484 -999 340 6.8 99270 -999
2006-02-15 08:40:48 51°12.591 2°49.463 -999 341 6.8 99270 -999
2006-02-15 08:40:55 51°12.579 2°49.427 -999 342 6.8 99270 -999
2006-02-15 08:40:59 51°12.572 2°49.406 -999 342 6.8 99260 -999
2006-02-15 08:41:04 51°12.564 2°49.38 -999 348 6.8 99260 -999
2006-02-15 08:41:08 51°12.557 2°49.359 -999 344 6.8 99260 -999
2006-02-15 08:41:15 51°12.544 2°49.324 -999 345 6.8 99260 -999
2006-02-15 08:41:19 51°12.537 2°49.303 -999 343 6.8 99250 -999
2006-02-15 08:41:24 51°12.528 2°49.278 -999 345 6.8 99250 -999
2006-02-15 08:41:29 51°12.52 2°49.252 -999 342 6.8 99270 -999
2006-02-15 08:41:34 51°12.511 2°49.226 -999 345 6.8 99270 -999
2006-02-15 08:41:40 51°12.501 2°49.195 -999 346 6.8 99250 -999
2006-02-15 08:41:44 51°12.495 2°49.174 -999 344 6.8 99250 -999
2006-02-15 08:41:49 51°12.487 2°49.148 -999 341 6.9 99260 -999
2006-02-15 08:41:54 51°12.479 2°49.121 -999 344 6.9 99260 -999
2006-02-15 08:41:59 51°12.471 2°49.094 -999 340 6.9 99240 -999
2006-02-15 08:42:04 51°12.464 2°49.068 -999 339 6.9 99240 -999
2006-02-15 08:42:09 51°12.457 2°49.041 -999 337 6.8 99260 -999
2006-02-15 08:42:14 51°12.449 2°49.014 -999 343 6.8 99260 -999
2006-02-15 08:42:19 51°12.442 2°48.987 -999 345 6.8 99260 -999
2006-02-15 08:42:24 51°12.434 2°48.961 -999 345 6.8 99260 -999
2006-02-15 08:42:29 51°12.426 2°48.934 -999 339 6.9 99240 -999
2006-02-15 08:42:34 51°12.419 2°48.908 -999 332 6.9 99240 -999
2006-02-15 08:42:39 51°12.411 2°48.881 -999 340 6.9 99250 -999
2006-02-15 08:42:44 51°12.403 2°48.855 -999 340 6.9 99250 -999
2006-02-15 08:42:49 51°12.395 2°48.829 -999 345 6.9 99250 -999
2006-02-15 08:42:54 51°12.387 2°48.802 -999 349 6.9 99250 -999
2006-02-15 08:42:59 51°12.379 2°48.777 -999 345 7 99210 -999
2006-02-15 08:43:04 51°12.37 2°48.75 -999 346 7 99210 -999
2006-02-15 08:43:09 51°12.362 2°48.724 -999 345 7 99240 -999
2006-02-15 08:43:14 51°12.354 2°48.698 -999 340 7 99240 -999
2006-02-15 08:43:19 51°12.346 2°48.671 -999 345 6.9 99260 -999
2006-02-15 08:43:24 51°12.338 2°48.645 -999 347 6.9 99260 -999
2006-02-15 08:43:28 51°12.332 2°48.624 -999 346 7 99260 -999
2006-02-15 08:43:35 51°12.322 2°48.586 -999 345 7 99260 -999
2006-02-15 08:43:39 51°12.316 2°48.565 -999 345 7 99250 -999
2006-02-15 08:43:44 51°12.308 2°48.538 -999 342 7 99250 -999
2006-02-15 08:43:49 51°12.301 2°48.511 -999 347 7 99240 -999
2006-02-15 08:43:54 51°12.293 2°48.485 -999 341 7 99240 -999
2006-02-15 08:44:00 51°12.284 2°48.453 -999 345 7 99250 -999
2006-02-15 08:44:04 51°12.278 2°48.432 -999 343 7 99250 -999
2006-02-15 08:44:08 51°12.271 2°48.411 -999 339 7 99240 -999
2006-02-15 08:44:15 51°12.26 2°48.374 -999 340 7 99240 -999
2006-02-15 08:44:19 51°12.254 2°48.353 -999 339 7 99250 -999
2006-02-15 08:44:24 51°12.246 2°48.327 -999 341 7 99250 -999
2006-02-15 08:44:29 51°12.237 2°48.301 -999 343 7.1 99240 -999
2006-02-15 08:44:34 51°12.229 2°48.275 -999 343 7.1 99240 -999
2006-02-15 08:44:39 51°12.221 2°48.249 -999 345 7.1 99230 -999
2006-02-15 08:44:44 51°12.213 2°48.222 -999 347 7.1 99230 -999
2006-02-15 08:44:50 51°12.204 2°48.191 -999 342 7.1 99230 -999
2006-02-15 08:44:55 51°12.196 2°48.164 -999 342 7.1 99230 -999
2006-02-15 08:44:59 51°12.19 2°48.143 -999 345 7.1 99240 -999
2006-02-15 08:45:04 51°12.182 2°48.116 -999 345 7.1 99240 -999
2006-02-15 08:45:10 51°12.173 2°48.084 -999 346 7.1 99250 -999
2006-02-15 08:45:15 51°12.166 2°48.057 -999 344 7.1 99250 -999
2006-02-15 08:45:19 51°12.159 2°48.036 -999 344 7.1 99240 -999
2006-02-15 08:45:24 51°12.152 2°48.009 -999 340 7.1 99240 -999
2006-02-15 08:45:30 51°12.143 2°47.977 -999 342 7.1 99250 -999
2006-02-15 08:45:35 51°12.135 2°47.95 -999 342 7.1 99250 -999
2006-02-15 08:45:39 51°12.129 2°47.929 -999 343 7 99260 -999
2006-02-15 08:45:44 51°12.121 2°47.902 -999 341 7 99260 -999
2006-02-15 08:45:49 51°12.113 2°47.876 -999 345 7 99250 -999
2006-02-15 08:45:55 51°12.104 2°47.843 -999 346 7 99250 -999
2006-02-15 08:45:59 51°12.098 2°47.822 -999 339 7 99240 -999
2006-02-15 08:46:04 51°12.09 2°47.795 -999 337 7 99240 -999
2006-02-15 08:46:09 51°12.082 2°47.768 -999 344 7 99250 -999
2006-02-15 08:46:15 51°12.073 2°47.736 -999 337 7 99250 -999
2006-02-15 08:46:20 51°12.066 2°47.709 -999 338 7.1 99250 -999
2006-02-15 08:46:24 51°12.06 2°47.688 -999 334 7.1 99250 -999
2006-02-15 08:46:29 51°12.052 2°47.661 -999 339 7.1 99250 -999
2006-02-15 08:46:34 51°12.044 2°47.635 -999 345 7.1 99250 -999
2006-02-15 08:46:39 51°12.036 2°47.608 -999 345 7.1 99240 -999
2006-02-15 08:46:45 51°12.026 2°47.576 -999 346 7.1 99240 -999
2006-02-15 08:46:48 51°12.021 2°47.561 -999 344 7.2 99230 -999
2006-02-15 08:46:55 51°12.01 2°47.524 -999 350 7.2 99230 -999
2006-02-15 08:47:00 51°12.003 2°47.497 -999 347 7.1 99260 -999
2006-02-15 08:47:05 51°11.995 2°47.47 -999 346 7.1 99260 -999
2006-02-15 08:47:09 51°11.989 2°47.448 -999 342 7.1 99260 -999
2006-02-15 08:47:14 51°11.982 2°47.422 -999 339 7.1 99260 -999
2006-02-15 08:47:19 51°11.974 2°47.395 -999 341 7.1 99270 -999
2006-02-15 08:47:24 51°11.967 2°47.368 -999 345 7.1 99270 -999
2006-02-15 08:47:29 51°11.959 2°47.341 -999 346 7.1 99250 -999
2006-02-15 08:47:34 51°11.952 2°47.315 -999 346 7.1 99250 -999
2006-02-15 08:47:39 51°11.944 2°47.288 -999 342 7.1 99250 -999
2006-02-15 08:47:44 51°11.937 2°47.261 -999 343 7.1 99250 -999
2006-02-15 08:47:48 51°11.93 2°47.24 -999 343 7.1 99270 -999
2006-02-15 08:47:55 51°11.919 2°47.203 -999 351 7.1 99270 -999
2006-02-15 08:47:59 51°11.913 2°47.181 -999 344 7.1 99260 -999
2006-02-15 08:48:04 51°11.906 2°47.154 -999 339 7.1 99260 -999
2006-02-15 08:48:09 51°11.898 2°47.128 -999 350 7.1 99270 -999
2006-02-15 08:48:15 51°11.889 2°47.096 -999 343 7.1 99270 -999
2006-02-15 08:48:20 51°11.882 2°47.069 -999 342 7.1 99260 -999
2006-02-15 08:48:24 51°11.877 2°47.047 -999 343 7.1 99260 -999
2006-02-15 08:48:29 51°11.87 2°47.02 -999 341 7.2 99260 -999
2006-02-15 08:48:34 51°11.863 2°46.992 -999 340 7.2 99260 -999
2006-02-15 08:48:39 51°11.857 2°46.965 -999 339 7.2 99260 -999
2006-02-15 08:48:44 51°11.851 2°46.937 -999 336 7.2 99260 -999
2006-02-15 08:48:50 51°11.844 2°46.904 -999 341 7.2 99250 -999
2006-02-15 08:48:54 51°11.839 2°46.881 -999 341 7.2 99250 -999
2006-02-15 08:48:59 51°11.833 2°46.853 -999 347 7.2 99270 -999
2006-02-15 08:49:04 51°11.827 2°46.826 -999 341 7.2 99270 -999
2006-02-15 08:49:09 51°11.821 2°46.798 -999 345 7.1 99260 -999
2006-02-15 08:49:14 51°11.815 2°46.77 -999 344 7.1 99260 -999
2006-02-15 08:49:19 51°11.808 2°46.742 -999 342 7.2 99260 -999
2006-02-15 08:49:24 51°11.802 2°46.715 -999 345 7.2 99260 -999
2006-02-15 08:49:30 51°11.795 2°46.682 -999 341 7.2 99270 -999
2006-02-15 08:49:35 51°11.789 2°46.654 -999 337 7.2 99270 -999
2006-02-15 08:49:39 51°11.784 2°46.632 -999 340 7.1 99270 -999
2006-02-15 08:49:44 51°11.778 2°46.604 -999 345 7.1 99270 -999
2006-02-15 08:49:48 51°11.773 2°46.581 -999 336 7.1 99260 -999
2006-02-15 08:49:55 51°11.764 2°46.542 -999 346 7.1 99260 -999
2006-02-15 08:49:59 51°11.759 2°46.52 -999 344 7.1 99270 -999
2006-02-15 08:50:04 51°11.753 2°46.492 -999 343 7.1 99270 -999
2006-02-15 08:50:08 51°11.748 2°46.47 -999 346 7.1 99260 -999
2006-02-15 08:50:15 51°11.739 2°46.431 -999 344 7.1 99260 -999
2006-02-15 08:50:19 51°11.734 2°46.409 -999 344 7.1 99270 -999
2006-02-15 08:50:24 51°11.728 2°46.382 -999 347 7.1 99270 -999
2006-02-15 08:50:29 51°11.722 2°46.354 -999 340 7.2 99260 -999
2006-02-15 08:50:34 51°11.715 2°46.326 -999 344 7.2 99260 -999
2006-02-15 08:50:40 51°11.708 2°46.293 -999 343 7.2 99250 -999
2006-02-15 08:50:44 51°11.703 2°46.271 -999 339 7.2 99250 -999
2006-02-15 08:50:49 51°11.697 2°46.243 -999 340 7.2 99260 -999
2006-02-15 08:50:54 51°11.691 2°46.215 -999 343 7.2 99260 -999
2006-02-15 08:50:59 51°11.685 2°46.188 -999 345 7.3 99260 -999
2006-02-15 08:51:04 51°11.678 2°46.16 -999 343 7.3 99260 -999
2006-02-15 08:51:09 51°11.672 2°46.132 -999 341 7.3 99260 -999
2006-02-15 08:51:14 51°11.666 2°46.104 -999 340 7.3 99260 -999
2006-02-15 08:51:19 51°11.659 2°46.077 -999 337 7.3 99260 -999
2006-02-15 08:51:24 51°11.653 2°46.049 -999 341 7.3 99260 -999
2006-02-15 08:51:30 51°11.645 2°46.016 -999 344 7.3 99250 -999
2006-02-15 08:51:34 51°11.64 2°45.994 -999 344 7.3 99250 -999
2006-02-15 08:51:39 51°11.633 2°45.966 -999 342 7.3 99270 -999
2006-02-15 08:51:44 51°11.627 2°45.939 -999 342 7.3 99270 -999
2006-02-15 08:51:50 51°11.619 2°45.905 -999 347 7.3 99260 -999
2006-02-15 08:51:55 51°11.613 2°45.878 -999 341 7.3 99260 -999
2006-02-15 08:51:59 51°11.608 2°45.855 -999 346 7.3 99260 -999
2006-02-15 08:52:04 51°11.602 2°45.827 -999 343 7.3 99260 -999
2006-02-15 08:52:10 51°11.595 2°45.794 -999 350 7.3 99260 -999
2006-02-15 08:52:15 51°11.588 2°45.766 -999 346 7.3 99260 -999
2006-02-15 08:52:19 51°11.584 2°45.744 -999 346 7.3 99270 -999
2006-02-15 08:52:24 51°11.577 2°45.716 -999 345 7.3 99270 -999
2006-02-15 08:52:29 51°11.571 2°45.688 -999 343 7.3 99260 -999
2006-02-15 08:52:34 51°11.564 2°45.66 -999 342 7.3 99260 -999
2006-02-15 08:52:39 51°11.558 2°45.632 -999 347 7.3 99270 -999
2006-02-15 08:52:44 51°11.552 2°45.605 -999 347 7.3 99270 -999
2006-02-15 08:52:48 51°11.547 2°45.583 -999 348 7.3 99270 -999
2006-02-15 08:52:55 51°11.538 2°45.544 -999 346 7.3 99270 -999
2006-02-15 08:52:59 51°11.533 2°45.521 -999 339 7.4 99250 -999
2006-02-15 08:53:04 51°11.527 2°45.494 -999 341 7.4 99250 -999
2006-02-15 08:53:10 51°11.52 2°45.46 -999 346 7.4 99260 -999
2006-02-15 08:53:14 51°11.515 2°45.438 -999 341 7.4 99260 -999
2006-02-15 08:53:20 51°11.508 2°45.405 -999 341 7.4 99260 -999
2006-02-15 08:53:24 51°11.503 2°45.382 -999 344 7.4 99260 -999
2006-02-15 08:53:29 51°11.497 2°45.354 -999 345 7.4 99260 -999
2006-02-15 08:53:34 51°11.491 2°45.327 -999 344 7.4 99260 -999
2006-02-15 08:53:39 51°11.485 2°45.299 -999 344 7.4 99250 -999
2006-02-15 08:53:44 51°11.479 2°45.271 -999 343 7.4 99250 -999
2006-02-15 08:53:50 51°11.471 2°45.238 -999 348 7.4 99270 -999
2006-02-15 08:53:54 51°11.466 2°45.216 -999 344 7.4 99270 -999
2006-02-15 08:53:59 51°11.46 2°45.189 -999 346 7.5 99240 -999
2006-02-15 08:54:04 51°11.453 2°45.161 -999 347 7.5 99240 -999
2006-02-15 08:54:09 51°11.447 2°45.134 -999 349 7.5 99250 -999
2006-02-15 08:54:14 51°11.441 2°45.106 -999 347 7.5 99250 -999
2006-02-15 08:54:19 51°11.434 2°45.078 -999 346 7.5 99260 -999
2006-02-15 08:54:24 51°11.428 2°45.051 -999 346 7.5 99260 -999
2006-02-15 08:54:29 51°11.422 2°45.023 -999 343 7.5 99270 -999
2006-02-15 08:54:34 51°11.416 2°44.996 -999 345 7.5 99270 -999
2006-02-15 08:54:40 51°11.408 2°44.962 -999 349 7.5 99270 -999
2006-02-15 08:54:44 51°11.403 2°44.94 -999 347 7.5 99270 -999
2006-02-15 08:54:49 51°11.397 2°44.912 -999 349 7.5 99280 -999
2006-02-15 08:54:54 51°11.391 2°44.885 -999 343 7.5 99280 -999
2006-02-15 08:54:59 51°11.385 2°44.856 -999 345 7.5 99280 -999
2006-02-15 08:55:04 51°11.379 2°44.829 -999 345 7.5 99280 -999
2006-02-15 08:55:09 51°11.373 2°44.801 -999 343 7.5 99280 -999
2006-02-15 08:55:15 51°11.365 2°44.768 -999 344 7.5 99280 -999
2006-02-15 08:55:20 51°11.359 2°44.74 -999 344 7.5 99270 -999
2006-02-15 08:55:24 51°11.354 2°44.718 -999 343 7.5 99270 -999
2006-02-15 08:55:29 51°11.348 2°44.69 -999 347 7.5 99290 -999
2006-02-15 08:55:34 51°11.342 2°44.662 -999 344 7.5 99290 -999
2006-02-15 08:55:39 51°11.337 2°44.634 -999 351 7.5 99280 -999
2006-02-15 08:55:44 51°11.332 2°44.606 -999 345 7.5 99280 -999
2006-02-15 08:55:49 51°11.327 2°44.577 -999 344 7.5 99280 -999
2006-02-15 08:55:54 51°11.322 2°44.549 -999 346 7.5 99280 -999
2006-02-15 08:55:59 51°11.318 2°44.52 -999 344 7.4 99280 -999
2006-02-15 08:56:04 51°11.313 2°44.492 -999 344 7.4 99280 -999
2006-02-15 08:56:10 51°11.308 2°44.458 -999 343 7.4 99270 -999
2006-02-15 08:56:15 51°11.304 2°44.43 -999 339 7.4 99270 -999
2006-02-15 08:56:19 51°11.3 2°44.407 -999 345 7.5 99280 -999
2006-02-15 08:56:24 51°11.295 2°44.379 -999 351 7.5 99280 -999
2006-02-15 08:56:30 51°11.289 2°44.345 -999 348 7.5 99260 -999
2006-02-15 08:56:34 51°11.285 2°44.322 -999 346 7.5 99260 -999
2006-02-15 08:56:39 51°11.28 2°44.294 -999 344 7.5 99270 -999
2006-02-15 08:56:44 51°11.276 2°44.266 -999 347 7.5 99270 -999
2006-02-15 08:56:49 51°11.271 2°44.237 -999 348 7.5 99280 -999
2006-02-15 08:56:55 51°11.266 2°44.203 -999 346 7.5 99280 -999
2006-02-15 08:56:59 51°11.262 2°44.18 -999 342 7.5 99280 -999
2006-02-15 08:57:04 51°11.259 2°44.152 -999 340 7.5 99280 -999
2006-02-15 08:57:09 51°11.254 2°44.123 -999 343 7.5 99290 -999
2006-02-15 08:57:15 51°11.249 2°44.089 -999 343 7.5 99290 -999
2006-02-15 08:57:20 51°11.244 2°44.061 -999 344 7.5 99280 -999
2006-02-15 08:57:24 51°11.241 2°44.038 -999 341 7.5 99280 -999
2006-02-15 08:57:29 51°11.236 2°44.01 -999 351 7.5 99280 -999
2006-02-15 08:57:35 51°11.231 2°43.976 -999 347 7.5 99280 -999
2006-02-15 08:57:39 51°11.227 2°43.953 -999 346 7.5 99280 -999
2006-02-15 08:57:44 51°11.222 2°43.925 -999 347 7.5 99280 -999
2006-02-15 08:57:49 51°11.218 2°43.897 -999 348 7.5 99280 -999
2006-02-15 08:57:54 51°11.214 2°43.869 -999 347 7.5 99280 -999
2006-02-15 08:57:59 51°11.209 2°43.841 -999 349 7.5 99270 -999
2006-02-15 08:58:04 51°11.205 2°43.813 -999 346 7.5 99270 -999
2006-02-15 08:58:10 51°11.199 2°43.78 -999 350 7.5 99270 -999
2006-02-15 08:58:14 51°11.195 2°43.758 -999 345 7.5 99270 -999
2006-02-15 08:58:19 51°11.19 2°43.73 -999 347 7.5 99260 -999
2006-02-15 08:58:25 51°11.184 2°43.696 -999 345 7.5 99260 -999
2006-02-15 08:58:30 51°11.18 2°43.669 -999 346 7.5 99270 -999
2006-02-15 08:58:34 51°11.176 2°43.646 -999 345 7.5 99270 -999
2006-02-15 08:58:39 51°11.172 2°43.618 -999 349 7.6 99270 -999
2006-02-15 08:58:44 51°11.167 2°43.59 -999 349 7.6 99270 -999
2006-02-15 08:58:49 51°11.163 2°43.562 -999 351 7.6 99270 -999
2006-02-15 08:58:55 51°11.158 2°43.528 -999 348 7.6 99270 -999
2006-02-15 08:58:59 51°11.154 2°43.505 -999 345 7.5 99280 -999
2006-02-15 08:59:04 51°11.149 2°43.477 -999 350 7.5 99280 -999
2006-02-15 08:59:09 51°11.145 2°43.449 -999 350 7.5 99280 -999
2006-02-15 08:59:15 51°11.139 2°43.415 -999 348 7.5 99280 -999
2006-02-15 08:59:19 51°11.136 2°43.393 -999 348 7.5 99280 -999
2006-02-15 08:59:24 51°11.131 2°43.365 -999 345 7.5 99280 -999
2006-02-15 08:59:29 51°11.126 2°43.337 -999 348 7.6 99260 -999
2006-02-15 08:59:35 51°11.121 2°43.304 -999 347 7.6 99260 -999
2006-02-15 08:59:40 51°11.116 2°43.276 -999 350 7.6 99250 -999
2006-02-15 08:59:44 51°11.112 2°43.253 -999 349 7.6 99250 -999
2006-02-15 08:59:48 51°11.108 2°43.231 -999 346 7.6 99270 -999
2006-02-15 08:59:54 51°11.103 2°43.197 -999 348 7.6 99270 -999
2006-02-15 08:59:59 51°11.098 2°43.17 -999 345 7.6 99260 -999
2006-02-15 09:00:04 51°11.094 2°43.141 -999 346 7.6 99260 -999
2006-02-15 09:00:08 51°11.09 2°43.119 -999 347 7.6 99270 -999
2006-02-15 09:00:14 51°11.085 2°43.085 -999 349 7.6 99270 -999
2006-02-15 09:00:19 51°11.081 2°43.056 -999 344 7.6 99280 -999
2006-02-15 09:00:24 51°11.077 2°43.028 -999 346 7.6 99280 -999
2006-02-15 09:00:29 51°11.073 2°43 -999 349 7.5 99280 -999
2006-02-15 09:00:34 51°11.069 2°42.972 -999 349 7.5 99280 -999
2006-02-15 09:00:40 51°11.063 2°42.938 -999 345 7.5 99280 -999
2006-02-15 09:00:44 51°11.06 2°42.915 -999 352 7.5 99280 -999
2006-02-15 09:00:48 51°11.056 2°42.893 -999 348 7.5 99280 -999
2006-02-15 09:00:54 51°11.051 2°42.859 -999 347 7.5 99280 -999
2006-02-15 09:00:59 51°11.046 2°42.831 -999 347 7.5 99270 -999
2006-02-15 09:01:04 51°11.042 2°42.803 -999 348 7.5 99270 -999
2006-02-15 09:01:08 51°11.039 2°42.78 -999 344 7.5 99270 -999
2006-02-15 09:01:14 51°11.033 2°42.747 -999 348 7.5 99270 -999
2006-02-15 09:01:19 51°11.029 2°42.718 -999 349 7.5 99280 -999
2006-02-15 09:01:24 51°11.025 2°42.69 -999 345 7.5 99280 -999
2006-02-15 09:01:28 51°11.021 2°42.667 -999 349 7.5 99260 -999
2006-02-15 09:01:35 51°11.015 2°42.628 -999 349 7.5 99260 -999
2006-02-15 09:01:39 51°11.011 2°42.606 -999 349 7.5 99280 -999
2006-02-15 09:01:44 51°11.006 2°42.578 -999 350 7.5 99280 -999
2006-02-15 09:01:49 51°11.002 2°42.55 -999 348 7.5 99280 -999
2006-02-15 09:01:55 51°10.997 2°42.516 -999 342 7.5 99280 -999
2006-02-15 09:01:59 51°10.993 2°42.494 -999 344 7.5 99280 -999
2006-02-15 09:02:04 51°10.989 2°42.466 -999 346 7.5 99280 -999
2006-02-15 09:02:08 51°10.985 2°42.444 -999 344 7.5 99270 -999
2006-02-15 09:02:14 51°10.98 2°42.41 -999 347 7.5 99270 -999
2006-02-15 09:02:20 51°10.974 2°42.376 -999 347 7.4 99280 -999
2006-02-15 09:02:24 51°10.971 2°42.354 -999 350 7.4 99280 -999
2006-02-15 09:02:29 51°10.966 2°42.326 -999 347 7.4 99270 -999
2006-02-15 09:02:35 51°10.961 2°42.292 -999 349 7.4 99270 -999
2006-02-15 09:02:40 51°10.957 2°42.264 -999 347 7.4 99270 -999
2006-02-15 09:02:45 51°10.953 2°42.236 -999 347 7.4 99270 -999
2006-02-15 09:02:48 51°10.95 2°42.219 -999 349 7.5 99270 -999
2006-02-15 09:02:54 51°10.945 2°42.186 -999 344 7.5 99270 -999
2006-02-15 09:02:59 51°10.94 2°42.158 -999 348 7.4 99280 -999
2006-02-15 09:03:04 51°10.936 2°42.13 -999 347 7.4 99280 -999
2006-02-15 09:03:08 51°10.933 2°42.107 -999 350 7.4 99270 -999
2006-02-15 09:03:14 51°10.927 2°42.074 -999 349 7.4 99270 -999
2006-02-15 09:03:19 51°10.923 2°42.046 -999 351 7.5 99270 -999
2006-02-15 09:03:24 51°10.918 2°42.018 -999 349 7.5 99270 -999
2006-02-15 09:03:30 51°10.913 2°41.984 -999 349 7.5 99280 -999
2006-02-15 09:03:35 51°10.909 2°41.957 -999 353 7.5 99280 -999
2006-02-15 09:03:39 51°10.905 2°41.934 -999 349 7.5 99270 -999
2006-02-15 09:03:44 51°10.901 2°41.907 -999 348 7.5 99270 -999
2006-02-15 09:03:49 51°10.896 2°41.879 -999 348 7.4 99270 -999
2006-02-15 09:03:55 51°10.891 2°41.846 -999 351 7.4 99270 -999
2006-02-15 09:03:59 51°10.888 2°41.823 -999 345 7.5 99270 -999
2006-02-15 09:04:04 51°10.884 2°41.796 -999 350 7.5 99270 -999
2006-02-15 09:04:08 51°10.881 2°41.773 -999 351 7.5 99260 -999
2006-02-15 09:04:15 51°10.875 2°41.734 -999 347 7.5 99260 -999
2006-02-15 09:04:19 51°10.872 2°41.712 -999 349 7.5 99270 -999
2006-02-15 09:04:24 51°10.868 2°41.684 -999 350 7.5 99270 -999
2006-02-15 09:04:30 51°10.863 2°41.651 -999 348 7.5 99270 -999
2006-02-15 09:04:34 51°10.859 2°41.628 -999 347 7.5 99270 -999
2006-02-15 09:04:40 51°10.854 2°41.595 -999 347 7.5 99260 -999
2006-02-15 09:04:44 51°10.85 2°41.573 -999 348 7.5 99260 -999
2006-02-15 09:04:49 51°10.845 2°41.545 -999 350 7.5 99260 -999
2006-02-15 09:04:54 51°10.841 2°41.517 -999 351 7.5 99260 -999
2006-02-15 09:05:00 51°10.836 2°41.484 -999 349 7.5 99270 -999
2006-02-15 09:05:04 51°10.833 2°41.461 -999 349 7.5 99270 -999
2006-02-15 09:05:09 51°10.829 2°41.433 -999 351 7.5 99270 -999
2006-02-15 09:05:15 51°10.824 2°41.4 -999 348 7.5 99270 -999
2006-02-15 09:05:19 51°10.821 2°41.377 -999 347 7.5 99270 -999
2006-02-15 09:05:24 51°10.816 2°41.349 -999 349 7.5 99270 -999
2006-02-15 09:05:30 51°10.811 2°41.316 -999 348 7.5 99280 -999
2006-02-15 09:05:35 51°10.807 2°41.288 -999 348 7.5 99280 -999
2006-02-15 09:05:39 51°10.803 2°41.266 -999 351 7.5 99280 -999
2006-02-15 09:05:44 51°10.799 2°41.238 -999 352 7.5 99280 -999
2006-02-15 09:05:50 51°10.793 2°41.204 -999 351 7.5 99270 -999
2006-02-15 09:05:55 51°10.789 2°41.177 -999 348 7.5 99270 -999
2006-02-15 09:06:00 51°10.785 2°41.149 -999 350 7.5 99270 -999
2006-02-15 09:06:04 51°10.782 2°41.126 -999 351 7.5 99270 -999
2006-02-15 09:06:09 51°10.778 2°41.098 -999 344 7.5 99280 -999
2006-02-15 09:06:14 51°10.774 2°41.07 -999 349 7.5 99280 -999
2006-02-15 09:06:20 51°10.769 2°41.036 -999 347 7.5 99260 -999
2006-02-15 09:06:25 51°10.765 2°41.008 -999 353 7.5 99260 -999
2006-02-15 09:06:28 51°10.763 2°40.991 -999 351 7.5 99270 -999
2006-02-15 09:06:35 51°10.757 2°40.952 -999 352 7.5 99270 -999
2006-02-15 09:06:39 51°10.754 2°40.929 -999 347 7.5 99280 -999
2006-02-15 09:06:44 51°10.75 2°40.902 -999 352 7.5 99280 -999
2006-02-15 09:06:50 51°10.745 2°40.868 -999 349 7.5 99260 -999
2006-02-15 09:06:54 51°10.741 2°40.846 -999 350 7.5 99260 -999
2006-02-15 09:07:00 51°10.736 2°40.812 -999 351 7.5 99260 -999
2006-02-15 09:07:04 51°10.733 2°40.79 -999 357 7.5 99260 -999
2006-02-15 09:07:09 51°10.729 2°40.762 -999 353 7.5 99260 -999
2006-02-15 09:07:15 51°10.724 2°40.728 -999 353 7.5 99260 -999
2006-02-15 09:07:19 51°10.721 2°40.705 -999 351 7.5 99270 -999
2006-02-15 09:07:24 51°10.717 2°40.677 -999 351 7.5 99270 -999
2006-02-15 09:07:29 51°10.713 2°40.649 -999 350 7.5 99280 -999
2006-02-15 09:07:35 51°10.708 2°40.616 -999 349 7.5 99280 -999
2006-02-15 09:07:39 51°10.705 2°40.593 -999 349 7.5 99270 -999
2006-02-15 09:07:44 51°10.701 2°40.565 -999 353 7.5 99270 -999
2006-02-15 09:07:49 51°10.696 2°40.537 -999 355 7.5 99260 -999
2006-02-15 09:07:55 51°10.691 2°40.504 -999 351 7.5 99260 -999
2006-02-15 09:07:59 51°10.688 2°40.482 -999 358 7.5 99270 -999
2006-02-15 09:08:04 51°10.684 2°40.454 -999 354 7.5 99270 -999
2006-02-15 09:08:09 51°10.68 2°40.426 -999 349 7.5 99280 -999
2006-02-15 09:08:15 51°10.675 2°40.392 -999 349 7.5 99280 -999
2006-02-15 09:08:19 51°10.672 2°40.37 -999 352 7.6 99270 -999
2006-02-15 09:08:24 51°10.668 2°40.342 -999 348 7.6 99270 -999
2006-02-15 09:08:30 51°10.663 2°40.309 -999 356 7.6 99250 -999
2006-02-15 09:08:35 51°10.658 2°40.281 -999 353 7.6 99250 -999
2006-02-15 09:08:40 51°10.654 2°40.253 -999 351 7.7 99270 -999
2006-02-15 09:08:44 51°10.65 2°40.231 -999 357 7.7 99270 -999
2006-02-15 09:08:49 51°10.646 2°40.203 -999 355 7.7 99280 -999
2006-02-15 09:08:54 51°10.641 2°40.176 -999 353 7.7 99280 -999
2006-02-15 09:08:59 51°10.637 2°40.149 -999 353 7.7 99270 -999
2006-02-15 09:09:04 51°10.632 2°40.122 -999 351 7.7 99270 -999
2006-02-15 09:09:09 51°10.627 2°40.094 -999 350 7.7 99270 -999
2006-02-15 09:09:15 51°10.622 2°40.06 -999 350 7.7 99270 -999
2006-02-15 09:09:20 51°10.617 2°40.033 -999 354 7.7 99270 -999
2006-02-15 09:09:24 51°10.614 2°40.011 -999 353 7.7 99270 -999
2006-02-15 09:09:29 51°10.609 2°39.983 -999 350 7.7 99280 -999
2006-02-15 09:09:35 51°10.603 2°39.949 -999 352 7.7 99280 -999
2006-02-15 09:09:39 51°10.6 2°39.927 -999 354 7.7 99280 -999
2006-02-15 09:09:44 51°10.595 2°39.899 -999 351 7.7 99280 -999
2006-02-15 09:09:49 51°10.59 2°39.871 -999 352 7.7 99270 -999
2006-02-15 09:09:55 51°10.585 2°39.838 -999 352 7.7 99270 -999
2006-02-15 09:09:59 51°10.581 2°39.816 -999 355 7.7 99270 -999
2006-02-15 09:10:04 51°10.576 2°39.788 -999 355 7.7 99270 -999
2006-02-15 09:10:10 51°10.571 2°39.754 -999 353 7.7 99270 -999
2006-02-15 09:10:15 51°10.566 2°39.726 -999 353 7.7 99270 -999
2006-02-15 09:10:19 51°10.563 2°39.704 -999 354 7.7 99280 -999
2006-02-15 09:10:24 51°10.558 2°39.676 -999 353 7.7 99280 -999
2006-02-15 09:10:29 51°10.553 2°39.648 -999 348 7.7 99280 -999
2006-02-15 09:10:34 51°10.549 2°39.62 -999 353 7.7 99280 -999
2006-02-15 09:10:39 51°10.544 2°39.592 -999 353 7.7 99280 -999
2006-02-15 09:10:44 51°10.54 2°39.564 -999 353 7.7 99280 -999
2006-02-15 09:10:49 51°10.535 2°39.536 -999 354 7.6 99280 -999
2006-02-15 09:10:55 51°10.53 2°39.503 -999 355 7.6 99280 -999
2006-02-15 09:10:59 51°10.526 2°39.481 -999 353 7.6 99280 -999
2006-02-15 09:11:04 51°10.521 2°39.453 -999 354 7.6 99280 -999
2006-02-15 09:11:09 51°10.517 2°39.425 -999 354 7.7 99270 -999
2006-02-15 09:11:15 51°10.511 2°39.392 -999 352 7.7 99270 -999
2006-02-15 09:11:19 51°10.507 2°39.37 -999 353 7.7 99270 -999
2006-02-15 09:11:24 51°10.502 2°39.342 -999 354 7.7 99270 -999
2006-02-15 09:11:29 51°10.498 2°39.315 -999 353 7.7 99270 -999
2006-02-15 09:11:34 51°10.493 2°39.287 -999 355 7.7 99270 -999
2006-02-15 09:11:39 51°10.489 2°39.26 -999 353 7.7 99260 -999
2006-02-15 09:11:44 51°10.485 2°39.232 -999 352 7.7 99260 -999
2006-02-15 09:11:49 51°10.48 2°39.204 -999 356 7.7 99260 -999
2006-02-15 09:11:55 51°10.475 2°39.171 -999 352 7.7 99260 -999
2006-02-15 09:11:59 51°10.471 2°39.149 -999 356 7.7 99260 -999
2006-02-15 09:12:04 51°10.467 2°39.121 -999 354 7.7 99260 -999
2006-02-15 09:12:09 51°10.463 2°39.093 -999 352 7.7 99270 -999
2006-02-15 09:12:15 51°10.457 2°39.06 -999 351 7.7 99270 -999
2006-02-15 09:12:19 51°10.454 2°39.038 -999 356 7.7 99280 -999
2006-02-15 09:12:24 51°10.45 2°39.01 -999 355 7.7 99280 -999
2006-02-15 09:12:29 51°10.445 2°38.982 -999 352 7.7 99270 -999
2006-02-15 09:12:35 51°10.44 2°38.948 -999 355 7.7 99270 -999
2006-02-15 09:12:39 51°10.436 2°38.926 -999 358 7.8 99270 -999
2006-02-15 09:12:44 51°10.432 2°38.898 -999 352 7.8 99270 -999
2006-02-15 09:12:50 51°10.426 2°38.865 -999 353 7.8 99270 -999
2006-02-15 09:12:55 51°10.421 2°38.837 -999 352 7.8 99270 -999
2006-02-15 09:12:59 51°10.417 2°38.815 -999 352 7.7 99270 -999
2006-02-15 09:13:04 51°10.413 2°38.788 -999 350 7.7 99270 -999
2006-02-15 09:13:09 51°10.408 2°38.76 -999 356 7.7 99270 -999
2006-02-15 09:13:15 51°10.402 2°38.728 -999 352 7.7 99270 -999
2006-02-15 09:13:19 51°10.399 2°38.706 -999 351 7.7 99280 -999
2006-02-15 09:13:24 51°10.394 2°38.678 -999 350 7.7 99280 -999
2006-02-15 09:13:29 51°10.39 2°38.65 -999 351 7.7 99260 -999
2006-02-15 09:13:35 51°10.384 2°38.617 -999 357 7.7 99260 -999
2006-02-15 09:13:40 51°10.38 2°38.589 -999 355 7.7 99250 -999
2006-02-15 09:13:44 51°10.377 2°38.567 -999 353 7.7 99250 -999
2006-02-15 09:13:49 51°10.372 2°38.539 -999 352 7.7 99280 -999
2006-02-15 09:13:54 51°10.368 2°38.511 -999 354 7.7 99280 -999
2006-02-15 09:14:00 51°10.363 2°38.478 -999 356 7.7 99250 -999
2006-02-15 09:14:05 51°10.359 2°38.45 -999 354 7.7 99250 -999
2006-02-15 09:14:10 51°10.354 2°38.423 -999 356 7.7 99260 -999
2006-02-15 09:14:14 51°10.351 2°38.4 -999 353 7.7 99260 -999
2006-02-15 09:14:19 51°10.347 2°38.372 -999 352 7.7 99250 -999
2006-02-15 09:14:24 51°10.342 2°38.345 -999 359 7.7 99250 -999
2006-02-15 09:14:29 51°10.338 2°38.317 -999 353 7.7 99250 -999
2006-02-15 09:14:35 51°10.333 2°38.284 -999 356 7.7 99250 -999
2006-02-15 09:14:39 51°10.329 2°38.262 -999 351 7.7 99260 -999
2006-02-15 09:14:44 51°10.326 2°38.234 -999 353 7.7 99260 -999
2006-02-15 09:14:49 51°10.321 2°38.207 -999 360 7.7 99250 -999
2006-02-15 09:14:54 51°10.317 2°38.179 -999 356 7.7 99250 -999
2006-02-15 09:14:59 51°10.312 2°38.151 -999 354 7.7 99250 -999
2006-02-15 09:15:04 51°10.308 2°38.124 -999 353 7.7 99250 -999
2006-02-15 09:15:10 51°10.302 2°38.09 -999 356 7.8 99240 -999
2006-02-15 09:15:15 51°10.298 2°38.062 -999 354 7.8 99240 -999
2006-02-15 09:15:19 51°10.295 2°38.04 -999 351 7.8 99250 -999
2006-02-15 09:15:24 51°10.291 2°38.012 -999 353 7.8 99250 -999
2006-02-15 09:15:29 51°10.287 2°37.984 -999 354 7.8 99260 -999
2006-02-15 09:15:35 51°10.282 2°37.95 -999 354 7.8 99260 -999
2006-02-15 09:15:39 51°10.279 2°37.928 -999 357 7.7 99270 -999
2006-02-15 09:15:44 51°10.275 2°37.901 -999 353 7.7 99270 -999
2006-02-15 09:15:49 51°10.271 2°37.874 -999 354 7.8 99260 -999
2006-02-15 09:15:55 51°10.266 2°37.84 -999 357 7.8 99260 -999
2006-02-15 09:15:59 51°10.263 2°37.818 -999 356 7.8 99250 -999
2006-02-15 09:16:04 51°10.258 2°37.791 -999 354 7.8 99250 -999
2006-02-15 09:16:09 51°10.254 2°37.763 -999 358 7.8 99240 -999
2006-02-15 09:16:15 51°10.25 2°37.729 -999 354 7.8 99240 -999
2006-02-15 09:16:19 51°10.246 2°37.707 -999 356 7.8 99260 -999
2006-02-15 09:16:24 51°10.242 2°37.679 -999 357 7.8 99260 -999
2006-02-15 09:16:30 51°10.237 2°37.646 -999 356 7.8 99270 -999
2006-02-15 09:16:35 51°10.233 2°37.618 -999 354 7.8 99270 -999
2006-02-15 09:16:39 51°10.229 2°37.595 -999 359 7.8 99260 -999
2006-02-15 09:16:44 51°10.225 2°37.568 -999 359 7.8 99260 -999
2006-02-15 09:16:49 51°10.22 2°37.54 -999 357 7.8 99250 -999
2006-02-15 09:16:54 51°10.215 2°37.513 -999 353 7.8 99250 -999
2006-02-15 09:16:59 51°10.21 2°37.485 -999 358 7.8 99260 -999
2006-02-15 09:17:04 51°10.205 2°37.457 -999 358 7.8 99260 -999
2006-02-15 09:17:10 51°10.2 2°37.424 -999 354 7.8 99260 -999
2006-02-15 09:17:15 51°10.196 2°37.396 -999 353 7.8 99260 -999
2006-02-15 09:17:20 51°10.191 2°37.368 -999 352 7.7 99270 -999
2006-02-15 09:17:24 51°10.188 2°37.345 -999 354 7.7 99270 -999
2006-02-15 09:17:30 51°10.183 2°37.312 -999 355 7.8 99260 -999
2006-02-15 09:17:35 51°10.178 2°37.284 -999 357 7.8 99260 -999
2006-02-15 09:17:39 51°10.175 2°37.261 -999 355 7.8 99270 -999
2006-02-15 09:17:44 51°10.17 2°37.234 -999 355 7.8 99270 -999
2006-02-15 09:17:50 51°10.165 2°37.2 -999 360 7.8 99250 -999
2006-02-15 09:17:55 51°10.16 2°37.172 -999 355 7.8 99250 -999
2006-02-15 09:18:00 51°10.155 2°37.145 -999 350 7.8 99270 -999
2006-02-15 09:18:04 51°10.152 2°37.122 -999 359 7.8 99270 -999
2006-02-15 09:18:09 51°10.147 2°37.094 -999 355 7.7 99260 -999
2006-02-15 09:18:14 51°10.143 2°37.066 -999 354 7.7 99260 -999
2006-02-15 09:18:20 51°10.137 2°37.033 -999 353 7.7 99280 -999
2006-02-15 09:18:24 51°10.134 2°37.011 -999 355 7.7 99280 -999
2006-02-15 09:18:29 51°10.129 2°36.983 -999 351 7.7 99270 -999
2006-02-15 09:18:34 51°10.125 2°36.955 -999 354 7.7 99270 -999
2006-02-15 09:18:40 51°10.119 2°36.921 -999 356 7.7 99250 -999
2006-02-15 09:18:44 51°10.116 2°36.899 -999 357 7.7 99250 -999
2006-02-15 09:18:49 51°10.112 2°36.872 -999 358 7.7 99270 -999
2006-02-15 09:18:54 51°10.107 2°36.843 -999 358 7.7 99270 -999
2006-02-15 09:18:59 51°10.103 2°36.816 -999 352 7.7 99270 -999
2006-02-15 09:19:04 51°10.099 2°36.788 -999 353 7.7 99270 -999
2006-02-15 09:19:09 51°10.094 2°36.76 -999 355 7.7 99260 -999
2006-02-15 09:19:14 51°10.09 2°36.732 -999 -999 7.7 99260 -999
2006-02-15 09:19:19 51°10.086 2°36.704 -999 354 7.7 99270 -999
2006-02-15 09:19:24 51°10.081 2°36.677 -999 356 7.7 99270 -999
2006-02-15 09:19:30 51°10.077 2°36.644 -999 354 7.7 99280 -999
2006-02-15 09:19:35 51°10.073 2°36.616 -999 356 7.7 99280 -999
2006-02-15 09:19:39 51°10.07 2°36.593 -999 358 7.7 99280 -999
2006-02-15 09:19:44 51°10.066 2°36.565 -999 353 7.7 99280 -999
2006-02-15 09:19:49 51°10.063 2°36.537 -999 353 7.7 99270 -999
2006-02-15 09:19:54 51°10.06 2°36.509 -999 354 7.7 99270 -999
2006-02-15 09:19:59 51°10.058 2°36.48 -999 354 7.7 99270 -999
2006-02-15 09:20:04 51°10.056 2°36.452 -999 351 7.7 99270 -999
2006-02-15 09:20:09 51°10.054 2°36.424 -999 350 7.7 99270 -999
2006-02-15 09:20:15 51°10.052 2°36.39 -999 351 7.7 99270 -999
2006-02-15 09:20:19 51°10.052 2°36.368 -999 348 7.7 99260 -999
2006-02-15 09:20:24 51°10.051 2°36.339 -999 347 7.7 99260 -999
2006-02-15 09:20:30 51°10.051 2°36.305 -999 341 7.7 99260 -999
2006-02-15 09:20:34 51°10.052 2°36.282 -999 341 7.7 99260 -999
2006-02-15 09:20:40 51°10.054 2°36.248 -999 342 7.6 99280 -999
2006-02-15 09:20:44 51°10.056 2°36.226 -999 344 7.6 99280 -999
2006-02-15 09:20:49 51°10.059 2°36.198 -999 346 7.7 99250 -999
2006-02-15 09:20:54 51°10.061 2°36.17 -999 339 7.7 99250 -999
2006-02-15 09:20:59 51°10.064 2°36.142 -999 337 7.6 99260 -999
2006-02-15 09:21:05 51°10.067 2°36.11 -999 338 7.6 99260 -999
2006-02-15 09:21:10 51°10.071 2°36.082 -999 338 7.7 99250 -999
2006-02-15 09:21:14 51°10.073 2°36.06 -999 337 7.7 99250 -999
2006-02-15 09:21:19 51°10.076 2°36.033 -999 339 7.7 99260 -999
2006-02-15 09:21:24 51°10.079 2°36.006 -999 335 7.7 99260 -999
2006-02-15 09:21:29 51°10.083 2°35.978 -999 334 7.7 99260 -999
2006-02-15 09:21:34 51°10.088 2°35.952 -999 337 7.7 99260 -999
2006-02-15 09:21:40 51°10.093 2°35.919 -999 333 7.7 99260 -999
2006-02-15 09:21:44 51°10.097 2°35.899 -999 328 7.7 99260 -999
2006-02-15 09:21:49 51°10.102 2°35.872 -999 333 7.7 99260 -999
2006-02-15 09:21:54 51°10.107 2°35.846 -999 329 7.7 99260 -999
2006-02-15 09:22:00 51°10.114 2°35.816 -999 324 7.7 99250 -999
2006-02-15 09:22:05 51°10.122 2°35.791 -999 323 7.7 99250 -999
2006-02-15 09:22:10 51°10.13 2°35.768 -999 322 7.6 99260 -999
2006-02-15 09:22:15 51°10.138 2°35.745 -999 322 7.6 99260 -999
2006-02-15 09:22:19 51°10.145 2°35.726 -999 35 7.6 99260 -999
2006-02-15 09:22:24 51°10.154 2°35.703 -999 37 7.6 99260 -999
2006-02-15 09:22:30 51°10.166 2°35.676 -999 319 7.6 99250 -999
2006-02-15 09:22:34 51°10.174 2°35.66 -999 229 7.6 99250 -999
2006-02-15 09:22:40 51°10.188 2°35.637 -999 310 7.6 99250 -999
2006-02-15 09:22:44 51°10.198 2°35.624 -999 309 7.6 99250 -999
2006-02-15 09:22:48 51°10.208 2°35.609 -999 307 7.6 99260 -999
2006-02-15 09:22:54 51°10.224 2°35.591 -999 309 7.6 99260 -999
2006-02-15 09:23:00 51°10.241 2°35.571 -999 302 7.6 99270 -999
2006-02-15 09:23:05 51°10.255 2°35.559 -999 300 7.6 99270 -999
2006-02-15 09:23:08 51°10.264 2°35.551 -999 296 7.6 99270 -999
2006-02-15 09:23:15 51°10.286 2°35.537 -999 290 7.6 99270 -999
2006-02-15 09:23:20 51°10.301 2°35.528 -999 295 7.5 99270 -999
2006-02-15 09:23:24 51°10.314 2°35.523 -999 285 7.5 99270 -999
2006-02-15 09:23:29 51°10.33 2°35.515 -999 285 7.5 99280 -999
2006-02-15 09:23:34 51°10.347 2°35.51 -999 281 7.5 99280 -999
2006-02-15 09:23:39 51°10.364 2°35.507 -999 278 7.5 99290 -999
2006-02-15 09:23:44 51°10.38 2°35.504 -999 267 7.5 99290 -999
2006-02-15 09:23:48 51°10.393 2°35.504 -999 279 7.5 99310 -999
2006-02-15 09:23:54 51°10.414 2°35.505 -999 273 7.5 99310 -999
2006-02-15 09:23:59 51°10.43 2°35.508 -999 259 7.5 99310 -999
2006-02-15 09:24:04 51°10.446 2°35.511 -999 258 7.5 99310 -999
2006-02-15 09:24:09 51°10.463 2°35.517 -999 264 7.5 99310 -999
2006-02-15 09:24:15 51°10.482 2°35.522 -999 258 7.5 99310 -999
2006-02-15 09:24:20 51°10.498 2°35.531 -999 257 7.5 99330 -999
2006-02-15 09:24:24 51°10.512 2°35.534 -999 252 7.5 99330 -999
2006-02-15 09:24:29 51°10.527 2°35.544 -999 258 7.5 99320 -999
2006-02-15 09:24:35 51°10.546 2°35.556 -999 252 7.5 99320 -999
2006-02-15 09:24:39 51°10.558 2°35.565 -999 248 7.5 99320 -999
2006-02-15 09:24:44 51°10.574 2°35.576 -999 249 7.5 99320 -999
2006-02-15 09:24:49 51°10.588 2°35.59 -999 241 7.5 99340 -999
2006-02-15 09:24:54 51°10.604 2°35.601 -999 239 7.5 99340 -999
2006-02-15 09:25:00 51°10.62 2°35.619 -999 251 7.4 99330 -999
2006-02-15 09:25:04 51°10.632 2°35.628 -999 237 7.4 99330 -999
2006-02-15 09:25:08 51°10.643 2°35.642 -999 246 7.4 99340 -999
2006-02-15 09:25:14 51°10.661 2°35.659 -999 240 7.4 99340 -999
2006-02-15 09:25:19 51°10.674 2°35.675 -999 240 7.4 99340 -999
2006-02-15 09:25:24 51°10.688 2°35.691 -999 238 7.4 99340 -999
2006-02-15 09:25:29 51°10.703 2°35.705 -999 239 7.4 99350 -999
2006-02-15 09:25:35 51°10.719 2°35.724 -999 231 7.4 99350 -999
2006-02-15 09:25:39 51°10.73 2°35.738 -999 230 7.4 99350 -999
2006-02-15 09:25:44 51°10.743 2°35.754 -999 247 7.4 99350 -999
2006-02-15 09:25:49 51°10.756 2°35.771 -999 237 7.4 99350 -999
2006-02-15 09:25:55 51°10.773 2°35.79 -999 236 7.4 99350 -999
2006-02-15 09:25:59 51°10.784 2°35.804 -999 238 7.4 99350 -999
2006-02-15 09:26:05 51°10.8 2°35.822 -999 243 7.4 99350 -999
2006-02-15 09:26:09 51°10.812 2°35.834 -999 240 7.4 99350 -999
2006-02-15 09:26:15 51°10.829 2°35.852 -999 254 7.4 99350 -999
2006-02-15 09:26:19 51°10.841 2°35.862 -999 242 7.4 99360 -999
2006-02-15 09:26:24 51°10.855 2°35.877 -999 245 7.4 99360 -999
2006-02-15 09:26:30 51°10.874 2°35.891 -999 251 7.4 99360 -999
2006-02-15 09:26:35 51°10.888 2°35.906 -999 234 7.4 99360 -999
2006-02-15 09:26:39 51°10.9 2°35.916 -999 253 7.4 99360 -999
2006-02-15 09:26:44 51°10.914 2°35.931 -999 243 7.4 99360 -999
2006-02-15 09:26:50 51°10.932 2°35.948 -999 247 7.4 99360 -999
2006-02-15 09:26:54 51°10.942 2°35.961 -999 240 7.4 99360 -999
2006-02-15 09:27:00 51°10.959 2°35.978 -999 243 7.4 99360 -999
2006-02-15 09:27:05 51°10.974 2°35.993 -999 241 7.4 99360 -999
2006-02-15 09:27:08 51°10.982 2°36.001 -999 247 7.4 99350 -999
2006-02-15 09:27:15 51°11.002 2°36.021 -999 253 7.4 99350 -999
2006-02-15 09:27:20 51°11.017 2°36.035 -999 241 7.4 99350 -999
2006-02-15 09:27:24 51°11.029 2°36.046 -999 240 7.4 99350 -999
2006-02-15 09:27:29 51°11.044 2°36.059 -999 244 7.3 99350 -999
2006-02-15 09:27:35 51°11.061 2°36.077 -999 241 7.3 99350 -999
2006-02-15 09:27:39 51°11.073 2°36.087 -999 252 7.3 99350 -999
2006-02-15 09:27:44 51°11.087 2°36.102 -999 236 7.3 99350 -999
2006-02-15 09:27:49 51°11.102 2°36.116 -999 246 7.3 99350 -999
2006-02-15 09:27:55 51°11.118 2°36.135 -999 253 7.3 99350 -999
2006-02-15 09:27:59 51°11.13 2°36.147 -999 255 7.3 99350 -999
2006-02-15 09:28:04 51°11.144 2°36.162 -999 248 7.3 99350 -999
2006-02-15 09:28:09 51°11.158 2°36.178 -999 250 7.3 99350 -999
2006-02-15 09:28:15 51°11.175 2°36.195 -999 244 7.3 99350 -999
2006-02-15 09:28:19 51°11.186 2°36.209 -999 241 7.3 99360 -999
2006-02-15 09:28:25 51°11.204 2°36.226 -999 236 7.3 99360 -999
2006-02-15 09:28:30 51°11.218 2°36.241 -999 253 7.3 99360 -999
2006-02-15 09:28:35 51°11.233 2°36.256 -999 250 7.3 99360 -999
2006-02-15 09:28:39 51°11.245 2°36.267 -999 232 7.3 99350 -999
2006-02-15 09:28:44 51°11.259 2°36.283 -999 247 7.3 99350 -999
2006-02-15 09:28:49 51°11.274 2°36.295 -999 246 7.3 99350 -999
2006-02-15 09:28:54 51°11.287 2°36.312 -999 247 7.3 99350 -999
2006-02-15 09:28:59 51°11.302 2°36.325 -999 247 7.3 99350 -999
2006-02-15 09:29:04 51°11.316 2°36.34 -999 244 7.3 99350 -999
2006-02-15 09:29:10 51°11.333 2°36.357 -999 231 7.3 99370 -999
2006-02-15 09:29:15 51°11.347 2°36.372 -999 252 7.3 99370 -999
2006-02-15 09:29:20 51°11.362 2°36.383 -999 230 7.3 99350 -999
2006-02-15 09:29:24 51°11.373 2°36.397 -999 252 7.3 99350 -999
2006-02-15 09:29:28 51°11.385 2°36.407 -999 241 7.3 99350 -999
2006-02-15 09:29:34 51°11.401 2°36.425 -999 240 7.3 99350 -999
2006-02-15 09:29:40 51°11.419 2°36.44 -999 246 7.3 99350 -999
2006-02-15 09:29:44 51°11.43 2°36.453 -999 231 7.3 99350 -999
2006-02-15 09:29:49 51°11.444 2°36.466 -999 239 7.3 99360 -999
2006-02-15 09:29:55 51°11.46 2°36.486 -999 252 7.3 99360 -999
2006-02-15 09:29:59 51°11.472 2°36.495 -999 231 7.3 99360 -999
2006-02-15 09:30:04 51°11.485 2°36.513 -999 237 7.3 99360 -999
2006-02-15 09:30:09 51°11.5 2°36.527 -999 260 7.2 99350 -999
2006-02-15 09:30:14 51°11.513 2°36.543 -999 248 7.2 99350 -999
2006-02-15 09:30:20 51°11.53 2°36.56 -999 238 7.3 99350 -999
2006-02-15 09:30:24 51°11.542 2°36.571 -999 251 7.3 99350 -999
2006-02-15 09:30:30 51°11.56 2°36.588 -999 253 7.2 99360 -999
2006-02-15 09:30:34 51°11.571 2°36.599 -999 254 7.2 99360 -999
2006-02-15 09:30:39 51°11.586 2°36.612 -999 241 7.3 99360 -999
2006-02-15 09:30:44 51°11.6 2°36.627 -999 260 7.3 99360 -999
2006-02-15 09:30:49 51°11.615 2°36.64 -999 252 7.3 99350 -999
2006-02-15 09:30:54 51°11.63 2°36.653 -999 238 7.3 99350 -999
2006-02-15 09:31:00 51°11.647 2°36.67 -999 252 7.3 99360 -999
2006-02-15 09:31:04 51°11.659 2°36.681 -999 240 7.3 99360 -999
2006-02-15 09:31:09 51°11.674 2°36.694 -999 242 7.3 99350 -999
2006-02-15 09:31:14 51°11.688 2°36.71 -999 258 7.3 99350 -999
2006-02-15 09:31:20 51°11.705 2°36.725 -999 237 7.3 99350 -999
2006-02-15 09:31:24 51°11.717 2°36.738 -999 239 7.3 99350 -999
2006-02-15 09:31:29 51°11.73 2°36.753 -999 252 7.3 99350 -999
2006-02-15 09:31:34 51°11.745 2°36.767 -999 247 7.3 99350 -999
2006-02-15 09:31:39 51°11.759 2°36.783 -999 250 7.3 99350 -999
2006-02-15 09:31:44 51°11.773 2°36.798 -999 249 7.3 99350 -999
2006-02-15 09:31:49 51°11.788 2°36.811 -999 251 7.3 99350 -999
2006-02-15 09:31:55 51°11.805 2°36.829 -999 238 7.3 99350 -999
2006-02-15 09:32:00 51°11.819 2°36.843 -999 240 7.3 99360 -999
2006-02-15 09:32:04 51°11.831 2°36.855 -999 237 7.3 99360 -999
2006-02-15 09:32:09 51°11.845 2°36.869 -999 240 7.3 99350 -999
2006-02-15 09:32:15 51°11.862 2°36.889 -999 233 7.3 99350 -999
2006-02-15 09:32:19 51°11.874 2°36.897 -999 248 7.3 99360 -999
2006-02-15 09:32:24 51°11.887 2°36.915 -999 255 7.3 99360 -999
2006-02-15 09:32:29 51°11.902 2°36.927 -999 248 7.3 99350 -999
2006-02-15 09:32:35 51°11.918 2°36.945 -999 237 7.3 99350 -999
2006-02-15 09:32:39 51°11.93 2°36.956 -999 242 7.3 99370 -999
2006-02-15 09:32:44 51°11.944 2°36.972 -999 247 7.3 99370 -999
2006-02-15 09:32:49 51°11.958 2°36.986 -999 249 7.3 99350 -999
2006-02-15 09:32:54 51°11.972 2°37.001 -999 247 7.3 99350 -999
2006-02-15 09:32:59 51°11.986 2°37.015 -999 241 7.3 99350 -999